Weather History for Berlin, NH

Change the Weather History Date:

Thursday, December 12, 2002

  Actual Average Record
Temperature  
Mean Temperature 26 °F -  
Max Temperature 35 °F 30 °F 46 °F (2010)
Min Temperature 17 °F 12 °F -5 °F (1997)
Degree Days  
Heating Degree Days 39    
Moisture  
Dew Point 28 °F    
Average Humidity 97    
Maximum Humidity 100    
Minimum Humidity 81    
Precipitation  
Precipitation 0.26 in - - ()
Sea Level Pressure  
Sea Level Pressure 30.05 in    
Wind  
Wind Speed 3 mph (NNW)    
Max Wind Speed 8 mph    
Max Gust Speed -    
Visibility 4 miles    
Events Fog , Snow    
Averages and records for this station are not official NWS values.
T = Trace of Precipitation, MM = Missing Value Source: NWS Daily Summary

Daily Weather History Graph

Daily Weather History Graph

Search for Another Location

Airport:

Trip Planner

Search our weather history database for the weather conditions in past years. The results will help you decide how hot, cold, wet, or windy it might be!

Date:

Astronomy

Dec. 12, 2002 Rise Set
Actual Time 7:12 AM EST 4:04 PM EST
Civil Twilight 6:38 AM EST 4:38 PM EST
Nautical Twilight 6:01 AM EST 5:14 PM EST
Astronomical Twilight 5:26 AM EST 5:50 PM EST
Moon 12:50 PM EST (12/12) No Moon Set
Length of Visible Light 9h 59m
Length of Day
8h 52m
First Quarter, 60% of the Moon is Illuminated
Dec 12
First Quarter
Dec 19
Full
Dec 26
Last Quarter
Jan 2
New
Jan 10
First Quarter

Hourly Weather History & Observations

Time (EST) Temp. Windchill Dew Point Humidity Pressure Visibility Wind Dir Wind Speed Gust Speed Precip Events Conditions
12:52 AM 28.0 °F 21.7 °F 25.0 °F 88% 30.11 in 10.0 mi NNW 5.8 mph - N/A   Overcast
1:13 AM 28.4 °F 22.2 °F 24.8 °F 86% 30.05 in 10.0 mi NNW 5.8 mph - N/A   Overcast
1:52 AM 28.9 °F 25.2 °F 26.1 °F 89% 30.09 in 10.0 mi NNW 3.5 mph - N/A   Overcast
2:52 AM 28.0 °F - 26.1 °F 92% 30.09 in 10.0 mi Calm Calm - N/A   Overcast
3:17 AM 28.4 °F - 26.6 °F 93% 30.04 in 2.5 mi Calm Calm - 0.00 in Snow Light Snow
3:22 AM 28.4 °F - 26.6 °F 93% 30.03 in 1.2 mi Calm Calm - 0.00 in Snow Light Snow
3:28 AM 28.4 °F 22.2 °F 26.6 °F 93% 30.03 in 0.8 mi NNW 5.8 mph - 0.00 in Snow Light Snow
3:35 AM 28.4 °F 22.2 °F 28.4 °F 100% 30.03 in 0.5 mi NNW 5.8 mph - 0.00 in Fog , Snow Snow
3:52 AM 28.9 °F 21.1 °F 28.9 °F 100% 30.08 in 0.5 mi NNW 8.1 mph - 0.00 in Fog , Snow Snow
4:20 AM 28.4 °F - 28.4 °F 100% 30.02 in 1.0 mi Calm Calm - 0.00 in Snow Light Snow
4:28 AM 28.4 °F - 28.4 °F 100% 30.01 in 1.0 mi Calm Calm - 0.00 in Snow Light Snow
4:52 AM 28.9 °F - 28.9 °F 100% 30.06 in 1.0 mi Calm Calm - 0.00 in Snow Light Snow
5:52 AM 30.0 °F 23.2 °F 30.0 °F 100% 30.07 in 1.0 mi NNW 6.9 mph - 0.00 in Snow Light Snow
6:07 AM 30.2 °F 25.4 °F 30.2 °F 100% 30.02 in 0.8 mi North 4.6 mph - 0.00 in Snow Light Snow
6:15 AM 30.2 °F 25.4 °F 30.2 °F 100% 30.02 in 1.0 mi NNW 4.6 mph - 0.00 in Snow Light Snow
6:52 AM 30.0 °F - 30.0 °F 100% 30.07 in 0.8 mi Calm Calm - 0.00 in Snow Light Snow
7:05 AM 30.2 °F - 30.2 °F 100% 30.02 in 1.0 mi Calm Calm - 0.00 in Snow Light Snow
7:37 AM 30.2 °F 26.7 °F 30.2 °F 100% 30.01 in 0.8 mi WNW 3.5 mph - 0.00 in Snow Light Snow
7:52 AM 30.0 °F - 30.0 °F 100% 30.06 in 0.8 mi Calm Calm - 0.00 in Snow Light Snow
8:06 AM 30.2 °F 25.4 °F 30.2 °F 100% 30.01 in 1.0 mi NW 4.6 mph - 0.00 in Snow Light Snow
8:21 AM 30.2 °F 26.7 °F 30.2 °F 100% 30.01 in 1.8 mi NW 3.5 mph - 0.00 in Snow Light Snow
8:39 AM 30.2 °F 23.4 °F 30.2 °F 100% 30.01 in 1.8 mi NNW 6.9 mph - 0.00 in Snow Light Snow
8:52 AM 30.9 °F 24.3 °F 30.0 °F 96% 30.06 in 3.0 mi NNW 6.9 mph - 0.00 in Snow Light Snow
9:14 AM 30.2 °F 25.4 °F 30.2 °F 100% 30.01 in 5.0 mi NW 4.6 mph - 0.00 in Snow Light Snow
9:52 AM 32.0 °F 27.5 °F 30.9 °F 96% 30.06 in 10.0 mi NW 4.6 mph - 0.00 in   Overcast
10:02 AM 32.0 °F 28.7 °F 30.2 °F 93% 30.00 in 10.0 mi Variable 3.5 mph - N/A   Overcast
10:21 AM 32.0 °F 28.7 °F 30.2 °F 93% 30.00 in 10.0 mi Variable 3.5 mph - N/A   Overcast
10:52 AM 33.1 °F 26.9 °F 30.9 °F 92% 30.04 in 10.0 mi NNW 6.9 mph - N/A   Overcast
11:52 AM 34.0 °F 31.0 °F 30.9 °F 89% 30.03 in 10.0 mi Variable 3.5 mph - 0.08 in   Mostly Cloudy
12:06 PM 35.6 °F - 32.0 °F 87% 29.98 in 10.0 mi Calm Calm - 0.02 in   Overcast
12:38 PM 35.6 °F - 30.2 °F 81% 29.97 in 10.0 mi Calm Calm - 0.06 in   Overcast
12:52 PM 35.1 °F - 32.0 °F 89% 30.01 in 10.0 mi Calm Calm - 0.08 in   Overcast
1:13 PM 35.6 °F - 32.0 °F 87% 29.96 in 10.0 mi Calm Calm - 0.03 in   Overcast
1:52 PM 34.0 °F - 32.0 °F 92% 30.02 in 10.0 mi Calm Calm - 0.06 in   Overcast
2:52 PM 34.0 °F - 33.1 °F 96% 30.04 in 10.0 mi Calm Calm - 0.03 in   Overcast
3:52 PM 32.0 °F - 32.0 °F 100% 30.07 in 8.0 mi Calm Calm - 0.01 in   Overcast
4:52 PM 30.0 °F 26.5 °F 30.0 °F 100% 30.09 in 5.0 mi NNW 3.5 mph - N/A   Partly Cloudy
5:52 PM 28.9 °F 25.2 °F 28.9 °F 100% 30.09 in 2.5 mi North 3.5 mph - N/A   Clear
5:56 PM 28.4 °F - 28.4 °F 100% 30.04 in 1.2 mi Calm Calm - N/A   Clear
6:06 PM 28.4 °F - 28.4 °F 100% 30.04 in 0.8 mi Calm Calm - N/A   Clear
6:20 PM 26.6 °F - 26.6 °F 100% 30.05 in 0.2 mi Calm Calm - N/A Fog Light Freezing Fog
6:45 PM 28.4 °F 23.3 °F 26.6 °F 93% 30.05 in 1.0 mi NNW 4.6 mph - N/A   Mist
6:52 PM 28.9 °F 22.8 °F 28.9 °F 100% 30.11 in 4.0 mi NNW 5.8 mph - N/A   Partly Cloudy
7:20 PM 26.6 °F - 26.6 °F 100% 30.06 in 1.5 mi Calm Calm - N/A   Clear
7:22 PM 26.6 °F - 26.6 °F 100% 30.06 in 0.8 mi Calm Calm - N/A   Clear
7:33 PM 24.8 °F - 24.8 °F 100% 30.06 in 0.2 mi Calm Calm - N/A Fog Light Freezing Fog
7:39 PM 24.8 °F - 24.8 °F 100% 30.06 in 0.5 mi Calm Calm - N/A Fog Light Freezing Fog
7:52 PM 25.0 °F - 25.0 °F 100% 30.12 in 0.8 mi Calm Calm - N/A   Mist
8:17 PM 24.8 °F - 24.8 °F 100% 30.07 in 0.2 mi Calm Calm - N/A Fog Light Freezing Fog
8:26 PM 24.8 °F - 24.8 °F 100% 30.07 in 0.2 mi Calm Calm - N/A Fog Light Freezing Fog
8:52 PM 23.0 °F - 23.0 °F 100% 30.14 in 0.2 mi Calm Calm - N/A Fog Light Freezing Fog
9:52 PM 19.0 °F - 19.0 °F 100% 30.14 in 0.2 mi Calm Calm - N/A Fog Light Freezing Fog
10:52 PM 21.0 °F - 21.0 °F 100% 30.15 in 0.2 mi Calm Calm - N/A Fog Light Freezing Fog
11:29 PM 21.2 °F - 21.2 °F 100% 30.10 in 1.0 mi Calm Calm - N/A   Mist
11:31 PM 19.4 °F - 19.4 °F 100% 30.10 in 1.5 mi Calm Calm - N/A   Partly Cloudy
11:37 PM 17.6 °F - 17.6 °F 100% 30.10 in 0.8 mi Calm Calm - N/A   Mist
11:52 PM 19.0 °F - 19.0 °F 100% 30.15 in 0.2 mi Calm Calm - N/A Fog Light Freezing Fog